Find Starlink 3075

NORAD ID: 49409 Int'l Des: 2021-104 Owner: SPXS Country: US Constellation: starlink operational
LEOCIRCULAR

現在のビュー

3D地球を読み込み中...

About Starlink 3075

Starlink 3075 (NORAD 49409) is a starlink constellation satellite (v1.5) launched Nov 13, 2021 by SPXS of US. It operates in LEO, CIRCULAR orbit with a mass of 290.00 kg.

Starlink 3075について

説明を読み込み中...

次回通過

Passes for default location (London). Set your location on the main map for personalized predictions.

高度履歴

Loading altitude history...

軌道要素

1 49409U 21104B 26170.27268374 -.00000188 00000-0 62739-5 0 9999
2 49409 53.1610 132.9902 0001337 89.7864 270.3281 15.08845744253971
Epoch: Jun 19, 2026 • Age: 13 hours

現在のステータス

高度 539.8 km
速度 7.60 km/s
衛星直下点 19.50°N, 52.7°W
打ち上げ日 Nov 13, 2021
運用期間 4.5 years
タイプ internet

技術仕様

分類 Payload
質量 290.00 kg
乾燥質量 270.00 kg
総質量 290.00 kg
長さ 0.20 m
直径 2.80 m
スパン 9.00 m
形状 Box + pan
製造者 SPXS
バスタイプ Starlink
フェーズステータス In Orbit
所有者/国 SPXS/US

Most Searched